Weather in Morga

Russia / Republic of Mordovia     54°24′10″N   46°26′50″E
temp.,
°C
wind,
m/s
gust,
m/s
humid.,
%
clouds,
%
prec.,
mm/h
press.,
hPa
HPBL,
m
18 may, tue
tue1800:00+17e226450 0.0 101613
03:00+15ese227414 0.0 101712
06:00+18ese24725 0.0 1016119
09:00+23ese46565 0.0 1016362
12:00+27se56390 0.0 1016918
15:00+28se57420 0.0 10151291
18:00+24e410610 0.0 1015227
21:00+18e310755 0.0 1015156
19 may, wed
wed1900:00+17e35804 0.0 101581
03:00+15e310820 0.0 1015181
06:00+18ese512801 0.0 1015347
09:00+22ese710655 0.0 1015603
12:00+25ese89544 0.0 10141063
15:00+26ese710550 0.0 10141434
18:00+23e612630 0.0 1013391
21:00+19ese515630 0.0 1014350
20 may, thu
thu2000:00+17ese515700 0.0 1014383
03:00+17ese615730 0.0 1014446
06:00+17ese614751 0.0 1013529
09:00+21se811641 0.0 1014880
12:00+24se8115623 0.0 10131692
15:00+20s61173100 1.4 1013591
18:00+18ssw4985100 1.7 1013380
21:00+15se2392100 1.8 101464
21 may, fri
fri2100:00+14s379487 0.0 1014147
03:00+14s3895100 0.5 1014242
06:00+14ssw48880 0.9 1014383
09:00+18ssw687017 0.9 10151052
12:00+20sw7106076 0.1 10151646
15:00+20sw710669 0.4 10161307
18:00+18sw7127923 1.3 1016964
21:00+14wsw4987100 1.4 1018234
22 may, sat
sat2200:00+11sw3589100 0.0 102094
03:00+10sw3890100 0.0 1021179
06:00+12wsw358399 0.0 1023285
09:00+12wnw3686100 0.4 1024355
12:00+12ne4486100 1.1 1024301
15:00+17e4472100 1.1 1023550
18:00+17e5877100 0.0 1021481
21:00+14ese41185100 0.0 1020272